This demonstration page uses our WeatherBlox Daily Observations layout. Learn more.

Left ArrowRight Arrow

39.92423, -83.80882

Hourly Observations for June 11, 2021

Temp ( °F °C ) Dew Point ( °F °C ) Humidity (%) Winds ( mph kmh ) Pressure ( in mb ) Visibility ( mi km ) Precip ( " mm )
12:56 am 00:56 Clear 68 20 N/A N/A NE 5 7 29.86 1011 10 16 N/A
1:56 am 01:56 Cloudy 70 21 N/A N/A NNE 3 6 29.85 1011 10 16 N/A
2:56 am 02:56 Mostly Clear 70 21 N/A N/A N N/A 29.85 1011 10 16 N/A
3:56 am 03:56 Clear 68 20 N/A N/A N N/A 29.84 1010 7 11 N/A
4:56 am 04:56 Mostly Clear 68 20 N/A N/A N N/A 29.83 1010 8 13 N/A
5:50 am 05:50 Clear with Mist and Fog 66 19 N/A N/A N N/A 29.82 1010 2 2 N/A
5:53 am 05:53 Clear with Mist and Fog 66 19 N/A N/A NE 3 6 29.82 1010 1 1 N/A
5:56 am 05:56 Clear with Fog 66 19 N/A N/A NE 5 7 29.82 1010 1 1 N/A
6:06 am 06:06 Clear with Mist and Fog 66 19 N/A N/A NNE 3 6 29.82 1010 1 2 N/A
6:09 am 06:09 Sunny with Mist and Fog 66 19 N/A N/A NNE 3 6 29.82 1010 2 3 N/A
6:18 am 06:18 Hazy 66 19 N/A N/A N N/A 29.82 1010 4 6 N/A
6:51 am 06:51 Sunny with Mist and Fog 68 20 N/A N/A NNW 3 6 29.81 1010 3 4 N/A
6:56 am 06:56 Sunny with Mist and Fog 68 20 N/A N/A N N/A 29.83 1010 3 4 N/A
7:04 am 07:04 Sunny with Mist and Fog 68 20 N/A N/A N N/A 29.81 1010 3 5 N/A
7:32 am 07:32 Hazy 68 20 N/A N/A NNE 3 6 29.82 1010 4 6 N/A
7:40 am 07:40 Mostly Cloudy with Haze 70 21 N/A N/A N N/A 29.82 1010 4 6 N/A
7:54 am 07:54 Cloudy with Mist and Fog 70 21 N/A N/A N N/A 29.82 1010 3 4 N/A
7:56 am 07:56 Cloudy with Mist and Fog 70 21 N/A N/A N N/A 29.83 1010 3 4 N/A
8:03 am 08:03 Cloudy with Mist and Fog 70 21 N/A N/A N N/A 29.82 1010 1 2 N/A
8:12 am 08:12 Cloudy with Mist and Fog 70 21 N/A N/A ENE 3 6 29.82 1010 1 1 N/A
8:23 am 08:23 Cloudy with Fog 70 21 N/A N/A ENE 3 6 29.83 1010 1 1 N/A
8:40 am 08:40 Cloudy with Fog 70 21 N/A N/A N N/A 29.83 1010 0 0 N/A
8:56 am 08:56 Cloudy with Fog 70 21 N/A N/A E 3 6 29.84 1011 1 1 N/A
9:15 am 09:15 Cloudy with Mist and Fog 70 21 N/A N/A N N/A 29.83 1010 1 2 N/A
9:23 am 09:23 Cloudy with Mist and Fog 70 21 N/A N/A N N/A 29.83 1010 2 3 N/A
9:36 am 09:36 Cloudy with Mist and Fog 70 21 N/A N/A N N/A 29.83 1010 3 5 N/A
9:56 am 09:56 Cloudy with Haze 72 22 N/A N/A N N/A 29.84 1011 4 6 N/A
10:14 am 10:14 Cloudy with Haze 73 23 N/A N/A N N/A 29.82 1010 6 10 N/A
10:31 am 10:31 Cloudy 75 24 73 23 94 94 N N/A 29.82 1010 8 13 N/A
10:56 am 10:56 Cloudy 76 24.4 74 23.3 94 94 N N/A 29.83 1010 9 14 N/A
11:25 am 11:25 Mostly Cloudy 79 26 73 23 84 84 N N/A 29.80 1009 10 16 N/A
11:56 am 11:56 Mostly Cloudy 81 27.2 73 22.8 77 77 NE 8 13 29.84 1010 10 16 N/A
12:19 pm 12:19 Mostly Cloudy 81 27 72 22 74 74 VRB 5 7 29.80 1009 10 16 N/A
12:38 pm 12:38 Mostly Cloudy 81 27 72 22 74 74 VRB 3 6 29.80 1009 9 14 N/A
12:56 pm 12:56 Cloudy 78 25.6 75 23.9 90 90 W 6 9 29.83 1010 10 16 N/A
1:09 pm 13:09 Partly Cloudy 79 26 75 24 89 89 WSW 6 9 29.79 1009 10 16 N/A
1:56 pm 13:56 Mostly Cloudy 82 27.8 72 22.2 72 72 SW 6 9 29.80 1009 10 16 N/A
2:30 pm 14:30 Cloudy with Nearby Thunderstorms 81 27 73 23 79 79 W 8 13 29.77 1008 10 16 N/A
2:56 pm 14:56 Partly Cloudy with Nearby Thunderstorms 80 26.7 73 22.8 79 79 NW 3 6 29.79 1009 10 16 N/A
3:52 pm 15:52 Partly Cloudy with Light Rain 79 26 75 24 89 89 N N/A 29.77 1008 10 16 0.00 0.00
3:56 pm 15:56 Partly Cloudy with Light Rain 78 25.6 75 23.9 90 90 SW 6 9 29.80 1009 10 16 0.00 0.00
4:27 pm 16:27 Partly Cloudy with Nearby Thunderstorms 79 26 77 25 94 94 WSW 3 6 29.75 1007 10 16 0.00 0.00
4:56 pm 16:56 Mostly Sunny 79 26.1 74 23.3 85 85 NNW 3 6 29.78 1008 10 16 0.00 0.00
5:56 pm 17:56 Sunny 77 25 76 24.4 96 96 WSW 3 6 29.77 1008 10 16 N/A
6:56 pm 18:56 Partly Cloudy 79 26.1 75 23.9 88 88 N N/A 29.77 1008 10 16 N/A
7:56 pm 19:56 Sunny 81 27.2 74 23.3 79 79 N N/A 29.78 1008 10 16 N/A
8:56 pm 20:56 Mostly Sunny 76 24.4 75 23.9 97 97 N N/A 29.80 1009 10 16 N/A
9:56 pm 21:56 Mostly Cloudy with Nearby Thunderstorms 73 23 N/A N/A ENE 7 11 29.83 1010 10 16 N/A
10:12 pm 22:12 Mostly Clear 73 23 N/A N/A ENE 7 11 29.80 1009 10 16 N/A
10:56 pm 22:56 Clear 72 22 N/A N/A SE 3 6 29.83 1010 10 16 N/A
11:56 pm 23:56 Clear 70 21.1 67 19.4 90 90 N N/A 29.84 1011 10 16 N/A

Powered by AerisWeather